Wind_Speed
50 53 59 64 71 75 82 87 89 90 89 94 105 109 109 104 100 104 98 96 85 72 63 69 73 75 75 74 72 71 55 48 46 47 46 42 35 34 36 34 36 35 34 35
55 62 67 69 74 77 76 77 69 71 64 73 85 76 76 80 89 93 87 81 73 66 65 66 74 73 73 74 75 72 58 52 49 47 45 42 39 37 37 37 38 37 36 37
57 61 62 66 67 62 59 46 45 45 40 47 49 53 45 44 41 47 62 68 68 66 66 64 74 76 74 73 72 69 59 55 52 48 44 41 42 38 39 38 38 36 37 39
55 58 58 55 51 41 43 40 39 34 27 24 27 44 32 30 31 42 50 61 66 68 65 64 71 76 78 76 68 63 62 51 50 47 39 37 40 41 39 40 41 39 41 42
50 47 43 34 33 38 36 38 35 29 17 26 20 34 18 19 26 30 34 44 57 54 56 60 65 72 72 72 66 67 62 48 46 44 39 37 41 43 40 36 33 40 41 41
33 24 27 31 33 35 34 28 26 18 18 20 6 18 8 8 13 16 23 31 46 48 50 55 57 63 71 67 72 61 58 54 49 46 42 41 42 43 40 37 34 36 39 43
19 23 27 28 28 28 22 13 11 12 13 8 10 10 9 16 2 13 16 20 34 41 44 46 51 52 56 61 66 54 63 56 53 47 43 43 43 43 40 40 40 42 36 41
19 22 27 24 24 24 19 11 9 11 10 6 4 4 12 12 4 19 8 16 22 28 34 37 42 43 45 45 43 44 49 48 46 45 45 46 45 44 42 43 42 43 40 39
19 25 26 27 25 21 16 9 9 11 11 10 8 14 7 12 15 2 8 17 20 25 31 37 37 38 39 41 43 41 41 44 46 46 46 47 45 44 45 46 46 44 46 46
22 20 25 23 20 13 10 12 11 8 10 6 9 3 6 4 10 8 10 22 19 21 30 33 34 38 37 40 42 44 44 45 47 47 48 49 48 47 47 47 48 44 46 47
23 24 22 18 14 10 8 6 9 11 15 19 19 7 7 11 5 6 11 7 6 26 26 28 32 33 32 33 37 41 41 42 45 45 46 48 50 50 50 47 46 46 46 48
18 23 18 17 14 3 5 9 8 11 10 15 15 9 18 5 10 11 9 2 4 9 27 34 32 42 38 35 36 38 36 35 37 38 42 45 48 51 50 49 48 47 49 50
15 21 12 14 17 5 9 6 5 8 12 15 13 11 17 3 9 10 14 16 10 12 18 25 16 20 34 32 30 31 31 29 31 35 37 39 42 45 47 47 45 43 47 50
13 21 15 14 12 8 4 8 4 4 6 10 13 7 10 10 8 2 4 3 13 12 19 19 28 27 28 26 27 30 32 37 37 32 33 35 36 39 43 47 47 46 44 48
5 7 11 13 9 3 6 6 6 3 11 2 14 14 14 13 12 10 10 9 7 8 11 14 23 26 32 35 32 26 28 31 35 37 39 38 39 41 42 44 43 42 42 44
4 2 5 14 3 6 3 7 6 2 17 17 11 7 12 11 14 13 12 11 9 8 8 9 12 12 15 22 26 20 23 27 31 31 36 38 39 43 46 44 43 41 41 38
14 5 1 3 12 10 12 16 12 13 12 8 6 7 8 11 12 10 7 7 5 7 5 4 3 6 10 10 13 18 20 24 27 31 33 35 37 39 39 42 42 43 42 41
13 10 12 13 12 5 21 14 12 10 7 3 2 3 3 3 3 5 6 4 3 3 3 3 3 5 6 8 12 14 16 17 19 21 25 28 30 34 38 40 42 40 41 43
11 9 12 12 11 7 11 6 6 5 4 1 2 2 2 2 1 0 3 2 1 2 3 4 5 6 8 11 13 15 16 17 18 19 17 19 23 28 29 33 37 37 37 39
13 11 12 11 9 11 7 4 4 4 4 4 3 2 1 2 2 4 3 3 7 9 9 11 11 11 11 13 14 14 13 15 17 17 17 20 22 22 25 26 28 35 35 36
11 10 11 13 12 11 9 3 1 2 3 4 2 2 2 3 4 3 2 3 7 11 12 13 13 14 16 16 18 18 17 17 17 16 17 19 20 20 20 23 25 29 34 39
15 16 14 16 18 16 10 7 7 5 5 4 3 3 3 2 1 2 3 4 5 7 10 10 12 14 15 16 17 17 18 19 20 20 21 22 23 24 24 23 24 23 27 31
12 12 16 13 15 19 16 13 10 9 8 6 6 4 2 2 2 5 6 8 9 11 13 15 17 18 20 21 23 24 25 26 27 28 29 30 32 33 32 31 31 30 29 26
10 7 8 8 10 8 8 10 10 9 7 5 3 2 3 5 8 10 12 13 14 16 17 18 20 21 22 23 24 26 29 32 33 34 35 37 37 39 39 39 38 37 35 34
13 10 7 9 8 8 8 8 7 6 5 2 0 4 7 9 11 13 15 17 19 21 22 24 26 26 27 28 30 33 34 35 36 37 38 39 39 39 40 42 44 42 42 41
23 17 13 11 9 9 8 6 6 5 3 3 6 8 11 13 16 18 20 23 25 27 27 29 30 31 32 33 34 36 37 39 40 41 41 42 43 45 45 45 46 47 48 47
Wind_Direction
287 288 284 283 282 280 279 278 275 271 267 263 265 264 262 256 252 254 251 249 249 247 235 227 233 234 234 237 239 244 242 244 241 243 244 246 248 248 249 254 257 261 264 265
292 290 289 289 288 286 284 284 285 280 279 274 271 272 272 270 260 256 254 250 246 243 234 223 228 231 232 235 238 241 239 241 237 238 240 245 244 242 249 254 253 257 262 262
293 291 290 291 290 298 297 290 289 289 285 276 277 275 277 279 277 257 245 237 233 233 235 226 225 228 232 237 236 240 235 235 231 233 237 238 242 241 245 252 252 252 258 260
295 297 298 300 300 300 286 301 299 302 293 289 274 286 288 286 274 262 247 232 226 227 228 224 223 226 227 234 237 243 235 232 235 237 239 239 246 246 244 247 249 248 248 255
300 306 312 308 301 297 297 290 294 296 294 298 301 293 321 263 261 259 251 238 232 231 226 223 223 225 233 239 235 241 242 234 237 245 238 241 244 249 248 246 249 252 250 245
313 323 322 323 316 312 303 295 286 277 288 313 305 277 294 260 265 252 249 238 232 229 225 223 224 228 229 232 239 236 234 240 242 239 238 243 247 247 248 245 244 242 248 254
315 318 326 321 319 327 318 286 270 275 310 353 331 293 272 281 269 219 209 231 233 227 221 221 223 227 234 236 241 241 234 240 238 232 237 243 245 249 250 249 248 246 245 243
305 315 331 327 319 327 324 302 272 281 302 320 345 308 284 312 209 216 219 204 210 212 217 219 222 225 235 236 235 239 222 226 231 233 234 243 245 246 246 247 248 253 258 263
316 336 334 329 326 315 318 304 266 288 290 316 345 272 278 297 326 234 213 214 205 217 220 220 217 220 224 228 229 237 233 230 233 238 237 239 241 241 242 245 247 247 250 252
319 322 334 328 328 305 302 287 276 290 298 321 0 336 286 252 328 342 266 233 225 229 226 217 219 223 222 222 225 230 237 238 237 238 240 242 243 241 241 245 249 249 248 254
311 330 338 325 326 322 263 279 258 270 284 307 327 349 0 306 311 356 253 228 214 222 220 228 226 234 226 224 224 230 238 241 241 241 241 242 240 241 243 246 250 253 252 251
316 317 335 311 334 14 329 256 263 262 283 300 312 316 7 7 299 298 292 242 337 244 210 230 228 235 235 229 230 238 244 249 250 250 249 249 251 249 248 249 250 249 252 256
305 325 334 315 323 314 272 293 281 267 285 301 290 299 320 135 263 272 292 277 248 241 242 214 245 230 219 230 235 238 242 247 259 255 254 253 253 252 251 252 252 250 248 250
305 324 337 324 320 319 252 225 224 254 286 303 304 320 138 145 161 179 118 274 270 254 237 254 228 226 228 229 237 246 245 261 268 255 257 256 257 257 256 253 250 250 247 248
341 10 358 334 314 292 218 183 176 162 320 255 123 121 105 92 94 98 97 89 85 206 225 238 219 228 231 236 244 242 256 266 264 259 263 260 260 262 260 259 258 256 254 251
173 32 3 334 236 115 244 181 172 194 124 126 123 120 109 100 88 77 62 74 69 50 99 219 215 222 231 233 233 253 264 267 266 266 258 258 257 260 255 257 261 259 255 253
194 228 221 130 99 125 162 151 190 206 166 140 88 93 84 90 97 95 95 95 73 81 78 99 169 210 219 222 244 254 258 257 257 257 257 257 255 258 257 256 256 255 252 249
240 242 233 276 277 195 132 119 124 119 145 176 32 350 1 57 94 119 117 109 95 190 168 200 236 263 270 262 259 259 261 264 270 268 268 262 263 259 254 253 252 253 253 252
233 234 253 256 260 261 197 132 139 129 114 248 296 331 15 2 324 96 186 140 223 275 207 222 250 256 273 278 276 278 279 281 282 281 285 282 272 260 261 263 256 252 253 252
223 213 234 239 236 241 239 215 170 188 191 214 237 292 349 1 341 309 304 273 256 265 276 280 282 284 279 272 272 280 285 288 291 299 300 298 293 287 276 273 267 255 252 251
211 185 225 224 221 220 203 204 237 205 219 231 212 208 251 274 288 284 306 292 291 291 304 303 297 287 285 284 279 278 279 283 288 291 294 293 293 295 296 285 280 269 259 258
215 203 199 211 220 216 211 193 205 215 196 208 204 204 192 208 269 296 315 309 296 302 303 302 299 290 285 285 287 287 290 292 293 296 294 294 295 294 295 290 284 281 273 267
252 240 228 212 216 224 227 222 215 224 224 227 239 239 245 269 290 299 303 308 301 296 296 293 293 293 294 293 292 294 293 292 291 289 288 287 288 291 288 286 284 282 280 277
233 240 251 224 196 195 202 208 217 223 220 218 232 300 341 349 345 340 331 328 321 317 314 311 308 306 303 301 299 297 294 291 288 286 284 282 280 282 283 282 282 280 278 275
234 242 244 249 233 217 211 199 197 194 195 184 34 358 340 333 327 322 317 313 312 310 309 306 303 301 301 299 299 299 296 294 291 288 286 283 280 278 276 276 277 278 277 277
244 248 243 246 231 222 222 225 223 226 227 292 312 320 323 318 311 305 302 300 298 298 300 301 301 302 301 300 298 297 296 295 295 292 290 286 283 280 276 273 271 272 273 274
Height
5672 5668 5661 5657 5650 5645 5635 5629 5624 5624 5629 5624 5599 5590 5597 5621 5634 5618 5632 5646 5657 5667 5681 5683 5684 5690 5696 5703 5711 5720 5732 5742 5743 5746 5749 5752 5757 5759 5760 5762 5763 5764 5767 5767
5658 5650 5643 5637 5626 5617 5613 5605 5594 5591 5593 5581 5580 5567 5575 5583 5595 5597 5607 5624 5639 5650 5657 5664 5669 5675 5681 5689 5698 5706 5720 5728 5732 5735 5741 5744 5747 5749 5751 5753 5756 5757 5758 5759
5645 5635 5628 5621 5611 5599 5597 5586 5583 5577 5581 5571 5563 5560 5562 5570 5571 5579 5585 5596 5609 5626 5635 5648 5654 5662 5669 5679 5687 5698 5708 5716 5719 5724 5729 5736 5738 5740 5742 5746 5748 5751 5750 5750
5629 5620 5611 5605 5598 5587 5583 5582 5575 5573 5568 5567 5563 5551 5561 5563 5565 5561 5567 5579 5593 5608 5620 5631 5640 5649 5651 5664 5679 5690 5697 5706 5709 5715 5721 5726 5729 5730 5733 5736 5738 5741 5741 5744
5616 5607 5602 5595 5589 5581 5580 5575 5572 5569 5567 5562 5565 5556 5558 5558 5555 5557 5562 5572 5583 5596 5609 5620 5629 5639 5650 5660 5669 5677 5686 5695 5699 5704 5711 5714 5717 5719 5723 5726 5730 5733 5734 5733
5605 5602 5598 5592 5585 5577 5572 5570 5568 5567 5565 5563 5559 5555 5555 5554 5556 5559 5561 5570 5580 5592 5602 5611 5620 5629 5641 5649 5660 5666 5676 5683 5687 5694 5699 5702 5706 5709 5713 5716 5720 5721 5724 5724
5605 5601 5596 5590 5584 5577 5570 5567 5567 5567 5565 5563 5560 5557 5554 5554 5555 5560 5563 5570 5578 5588 5597 5606 5614 5623 5631 5643 5651 5655 5664 5671 5676 5683 5688 5693 5697 5700 5705 5707 5710 5712 5711 5713
5604 5599 5595 5589 5582 5577 5572 5569 5569 5566 5564 5562 5563 5561 5560 5559 5562 5562 5559 5571 5577 5585 5594 5601 5609 5617 5624 5633 5639 5646 5653 5661 5665 5671 5677 5682 5687 5691 5695 5697 5700 5701 5702 5704
5601 5597 5590 5584 5578 5576 5573 5571 5569 5566 5564 5562 5561 5563 5565 5565 5566 5567 5569 5572 5577 5583 5590 5597 5604 5610 5617 5624 5632 5638 5644 5650 5655 5660 5665 5669 5676 5681 5685 5687 5688 5692 5693 5697
5598 5593 5587 5581 5576 5573 5572 5571 5569 5567 5565 5563 5565 5566 5565 5567 5565 5565 5567 5572 5575 5581 5587 5593 5599 5605 5611 5618 5625 5632 5638 5642 5646 5650 5654 5658 5663 5669 5674 5677 5679 5683 5684 5684
5593 5590 5586 5581 5576 5573 5572 5570 5569 5567 5568 5566 5565 5566 5566 5566 5567 5568 5567 5568 5569 5579 5579 5589 5596 5601 5606 5613 5619 5625 5630 5634 5638 5641 5645 5648 5652 5657 5662 5666 5669 5670 5673 5674
5590 5587 5582 5579 5575 5573 5571 5570 5569 5569 5571 5567 5565 5568 5566 5567 5567 5568 5569 5571 5572 5573 5582 5587 5592 5597 5602 5608 5614 5619 5622 5625 5628 5632 5636 5639 5642 5645 5649 5654 5657 5660 5661 5662
5587 5584 5580 5578 5575 5572 5570 5570 5569 5569 5569 5568 5568 5569 5569 5569 5568 5569 5568 5569 5573 5575 5577 5577 5584 5587 5597 5603 5607 5611 5614 5619 5622 5625 5627 5629 5632 5635 5637 5641 5645 5648 5650 5652
5583 5581 5577 5575 5573 5571 5569 5569 5569 5569 5569 5569 5569 5569 5570 5570 5570 5569 5569 5569 5570 5573 5575 5576 5582 5587 5594 5598 5602 5606 5610 5612 5614 5616 5617 5619 5622 5624 5626 5628 5632 5636 5639 5640
5581 5581 5577 5572 5569 5568 5567 5568 5569 5571 5569 5568 5570 5571 5572 5572 5572 5572 5571 5571 5570 5570 5572 5572 5577 5583 5589 5593 5597 5600 5601 5602 5605 5607 5608 5609 5611 5612 5615 5617 5619 5623 5626 5629
5580 5580 5579 5573 5570 5568 5568 5569 5570 5572 5572 5571 5572 5573 5573 5573 5573 5573 5572 5573 5573 5573 5571 5573 5575 5580 5585 5586 5590 5594 5595 5596 5596 5597 5598 5599 5600 5601 5603 5606 5608 5611 5614 5617
5579 5578 5580 5578 5575 5568 5569 5570 5572 5574 5574 5574 5574 5575 5574 5574 5575 5575 5575 5575 5575 5575 5575 5576 5579 5581 5584 5585 5587 5589 5590 5590 5589 5589 5589 5590 5590 5591 5593 5595 5597 5599 5601 5604
5576 5576 5577 5577 5576 5577 5572 5571 5573 5573 5573 5574 5574 5575 5575 5576 5576 5575 5576 5576 5576 5577 5576 5577 5578 5580 5580 5581 5583 5585 5585 5585 5584 5582 5581 5580 5581 5581 5582 5584 5585 5587 5589 5591
5573 5573 5573 5575 5574 5575 5573 5572 5572 5572 5573 5574 5574 5575 5574 5575 5575 5575 5576 5575 5576 5577 5578 5578 5577 5577 5578 5578 5580 5580 5579 5579 5578 5577 5575 5575 5574 5574 5574 5574 5575 5577 5579 5581
5570 5570 5571 5571 5572 5573 5573 5572 5572 5572 5574 5575 5574 5573 5573 5574 5574 5574 5574 5575 5576 5577 5576 5576 5575 5575 5575 5577 5577 5576 5575 5574 5573 5570 5568 5569 5569 5568 5567 5566 5566 5568 5570 5571
5567 5568 5568 5568 5570 5571 5572 5572 5572 5574 5577 5574 5574 5574 5574 5574 5574 5574 5574 5574 5574 5574 5572 5571 5571 5572 5573 5573 5573 5572 5571 5569 5568 5566 5565 5564 5564 5563 5561 5559 5559 5559 5560 5561
5564 5565 5565 5565 5566 5569 5570 5571 5573 5573 5572 5574 5574 5574 5574 5574 5574 5574 5573 5573 5573 5573 5573 5572 5571 5571 5571 5569 5568 5567 5566 5565 5563 5560 5560 5559 5558 5557 5556 5555 5555 5554 5553 5552
5563 5562 5562 5563 5562 5564 5565 5567 5569 5570 5571 5571 5573 5573 5572 5573 5573 5573 5573 5572 5572 5572 5571 5571 5570 5569 5567 5566 5564 5561 5560 5559 5558 5556 5555 5554 5552 5551 5550 5549 5548 5547 5546 5544
5559 5559 5559 5559 5559 5560 5562 5563 5565 5566 5567 5568 5569 5568 5568 5568 5569 5569 5569 5568 5568 5568 5567 5566 5564 5562 5561 5559 5557 5555 5554 5553 5552 5550 5549 5547 5545 5542 5540 5538 5537 5536 5535 5534
5557 5557 5557 5558 5558 5559 5560 5561 5563 5564 5565 5566 5566 5566 5567 5567 5567 5566 5566 5565 5564 5561 5559 5558 5557 5555 5553 5551 5549 5548 5546 5544 5542 5540 5538 5536 5534 5532 5530 5528 5525 5523 5522 5520
5553 5554 5555 5556 5557 5558 5559 5559 5559 5560 5561 5562 5562 5562 5563 5563 5563 5562 5561 5559 5558 5556 5554 5551 5549 5547 5545 5543 5541 5539 5536 5533 5530 5528 5525 5523 5521 5519 5517 5516 5514 5512 5510 5508